Showing default

S-NET A, 43188

Orbit data source: Space-Track

S-NET A, 43188 is a payload satellite owned by TUB (DE) in SSO that was launched on Thu, 01 Feb 2018 UTC via a SOYUZ-2-1A launch vehicle from the Vostochny Cosmodrome (VOSTO). Payload-class satellites include a variety of spacecraft equipped with specific instruments for various scientific and technological missions. These include communications satellites like Starlink; space stations such as the ISS; scientific satellites like the Hubble; Earth observation satellites from companies like Planet Labs, Umbra, and HawkEye 360; GPS; miniature CubeSats for education and research; and military/defense satellites.

Loading next visibility...
Identifier
43188, 2018-014J
Orbit
SSO
Country
Flag of DEDE / GER
Related business
Manufacturer
TUB
Mission
Operational Commercial Com/Tech
Bus & Motor
TUBIX10, Unknown motor
Mass
8 kg wet, 8 kg dry
Launch date (UTC)
2018-02-01 (8 years ago)
Launch vehicle
SOYUZ-2-1A
Launch site
Vostochny Cosmodrome (VOSTO)
Object type
Payload
Rocket body
Debris
Shape & HBR
Box, 0.1 m
Radar Cross Section
0.086 m², Medium (>0.1 m² and < 1m²)

Expand to show TLE details & history
Last TLE update: 1 day ago

TLE from 1 day ago
0 S-NET A
1 43188U 18014J   25259.68549629  .00006184  00000-0  35593-3 0  9997
2 43188  97.5514 161.7181 0007832 233.6889 126.3620 15.12778013417356
Epoch: 2025-09-16T16:27Z
TLE epoch observation values (Epoch: 2025-09-16T16:27:06.879Z)
Latitude
0.00006°
Longitude
-80.93282°
Altitude
534.019 km
Speed
7.594 km/s
True Right ascension
10h 46m 52s
True Declination
0° 00' 00"
Sunlit
Object was in daylight at epoch
Visualization orbit readout
Latitude
Unknown
Longitude
Unknown
Altitude
Unknown
Speed
Unknown
Apparent Right ascension
Unknown
Apparent Declination
Unknown
Sunlit
N/A
Visualization observer readout
Local Sidereal Time
17:05:27
Azimuth
Unknown
Elevation
Unknown
Doppler factor
Unknown
Orbital elements
Apogee altitude
530.121 km
Perigee altitude
519.308 km
Semi-major axis
6,902.851 km
Eccentricity
0.00078
Inclination
97.5514°
RAAN
161.7181°
Arg. of periapsis
233.6889°
True anomaly
126.43423°
Mean anomaly
126.362°
Eccentric anomaly
126.39812°
Mean motion
3.78443 °/min
Orbital period
95.13 mins
BSTAR
0.00035593
Loading maneuver chart data...
Computing Atmospheric mass density...
Loading historical data...
Loading historical data...
Loading historical data...
Loading historical data...
Loading historical data...
Loading historical data...
Loading historical data...

Documentation

Showing up to 5 results
|